Regional Weather Roundup
Issued by NWS State College, PA

Home | Current Version | Previous Version | Graphics & Text | Print | Product List | Glossary On
Versions: 1 2 3 4 5 6 7 8 9 10 11 12 13 14 15 16 17 18 19 20 21 22 23 24 25 26 27 28 29 30 31 32 33 34 35 36 37 38 39 40 41 42 43 44 45 46 47 48 49 50
000
ASUS41 KCTP 181103
RWRCTP

REGIONAL WEATHER ROUNDUP
NATIONAL WEATHER SERVICE STATE COLLEGE PA
700 AM EDT THU SEP 18 2014

Note: "fair" indicates few or no clouds below 12,000 feet with no
significant weather and/or obstructions to visibility.

* = STATION THAT DOES NOT REPORT PRECIPITATION /E.G. RAIN...SNOW...ETC/
    THUNDER OR FOG.

PAZ002>004-007>009-013>016-020>023-029>032-181200-
WESTERN PENNSYLVANIA

CITY           SKY/WX    TMP DP  RH WIND       PRES   REMARKS
ERIE           CLEAR     49  44  83 S6        30.04R
MEADVILLE      CLEAR     45  42  89 CALM      30.05R FOG
FRANKLIN*      CLEAR     43  37  81 CALM      30.06R
NEW CASTLE     PTSUNNY   42  42 100 CALM      30.06S FOG
BEAVER COUNTY  PTCLDY    46  46 100 CALM      30.05  FOG
BUTLER*          N/A     45  43  93 CALM      30.06R VSB 1/2
PITTSBURGH INT PTCLDY    52  49  89 CALM      30.04R
PITTSBURGH     MOCLDY    52  47  83 N7        30.03R
INDIANA*       CLOUDY    48  46  93 VRB3      30.07R
LATROBE        MOCLDY    46  46 100 CALM      30.04S FOG
WASHINGTON CO* MOCLDY    46  45  93 CALM      30.04R
$$

PAZ004>006-010>012-017>019-024>028-033>037-041-042-045-046-049>053-181200-
CENTRAL PENNSYLVANIA

CITY           SKY/WX    TMP DP  RH WIND       PRES   REMARKS
BRADFORD       FOG       38  37  97 CALM      30.04R VSB 1/4
DUBOIS         CLEAR     46  44  93 CALM      30.03R
CLEARFIELD     FOG       43  43 100 CALM      30.04R VSB 1/4
JOHNSTOWN      PTCLDY    47  44  90 CALM      30.03R
ALTOONA        MOCLDY    47  47 100 CALM      30.02R FOG
STATE COLLEGE  MOCLDY    48  46  93 E5        30.03R FOG
WILLIAMSPORT   FOG       50  47  89 NW5       30.02R VSB 1
SELINSGROVE    CLOUDY    48  47  96 CALM      30.02R FOG
FT INDIANTOWN  CLOUDY    49  49 100 CALM      30.01R
CAPITAL CITY   MOCLDY    53  50  89 CALM      30.01R
HARRISBURG     CLOUDY    55  51  86 CALM      30.00R
YORK           MOCLDY    52  50  93 CALM      30.00R
$$

PAZ038>040-043-044-047-048-054-055-060>062-067>071-181200-
EASTERN PENNSYLVANIA

CITY           SKY/WX    TMP DP  RH WIND       PRES   REMARKS
SCRANTON       CLOUDY    48  44  86 CALM      30.02R
MOUNT POCONO   MOCLDY    45  32  60 CALM      30.02R
ALLENTOWN      CLOUDY    50  46  86 CALM      30.01R
QUAKERTOWN*    CLOUDY    46  45  93 CALM      30.01S
READING        CLOUDY    51  47  86 N3        30.00R
LANCASTER      CLOUDY    51  48  89 CALM      30.00R
COATESVILLE    PTSUNNY   55  50  82 CALM      30.01R
POTTSTOWN      CLOUDY    49  48  97 CALM      30.02R
BLUE BELL      PTCLDY    46  46 100 CALM      30.00R
DOYLESTOWN     CLOUDY    47  47 100 CALM      30.00R
WILLOW GROVE   NOT AVBL
NORTH PHILA    MOCLDY    53  48  83 CALM      30.02R
PHILADELPHIA   MOCLDY    57  49  74 CALM      30.01R
$$


USA.gov is the U.S. government's official web portal to all federal, state and local government web resources and services.